Location: Chmeln�
(49.6483°N, 14.9871°E)
Time: 06:20:47
(UTC+00:00)

Lacrosse 5 rocket - Pass Details

Date: 18 September 2020
Orbit: 460 x 636 km, 57.0° (Epoch: 27 October)

Event Time Altitude Azimuth Distance (km) Brightness Sun altitude
Rises 18:07:52 0° 259° (WSW) 2,735 6.1 -10.7°
Reaches altitude 10° 18:10:07 10° 265° (W) 1,872 5.3 -11.0°
Maximum altitude 18:14:13 45° 339° (NNW) 812 2.5 -11.7°
Drops below altitude 10° 18:18:34 10° 53° (NE) 1,973 3.8 -12.4°
Enters shadow 18:19:30 - 56° (ENE) 2,327 4.1 -12.5°
